Location: Cerezo de Arriba
(41.2389°N, 3.5585°W)
Time: 04:55:08
(UTC+00:00)

Cosmos 2084 Rocket - Pass Details

Date: 19 May 2025
Orbit: 543 x 578 km, 62.8° (Epoch: 23 June)

Event Time Altitude Azimuth Distance (km) Brightness Sun altitude
Rises 21:51:14 0° 225° (SW) 2,778 6.8 -20.8°
Reaches altitude 10° 21:53:30 10° 230° (SW) 1,881 6.0 -21.0°
Maximum altitude 21:57:40 55° 309° (NW) 694 4.1 -21.4°
Drops below altitude 10° 22:01:50 10° 28° (NNE) 1,877 6.4 -21.9°
Sets 22:04:06 0° 33° (NNE) 2,773 7.2 -22.1°
